When you browse on this site, cookies collect data to enhance your experience and personalize the content and advertising you see.
Visit our Privacy Policy to learn more. By continuing to use the site, you agree to this use of cookies and data.
  • In Portugal
  • List of Countries
  • For 7 days
  • Water Temperature
  • Satellite Maps
  • Weather Map
  • Weather Widgets
  • user-avatar
    Login

    Hourly Weather Choybalsan

    Today, 26 June, Wednesday

    Time Temperature Precipitation Wind Pressure Humidity
    00:00 +19°C° 1.1 mm 5 mps 684 mmHg 79%
    01:00 +19°C° 1.1 mm 5 mps 684 mmHg 82%
    02:00 +18°C° 0 mm 4 mps 683 mmHg 85%
    03:00 +18°C° 0 mm 4 mps 683 mmHg 87%
    04:00 +18°C° 0 mm 3 mps 684 mmHg 88%
    05:00 +18°C° 0 mm 3 mps 684 mmHg 90%
    06:00 +19°C° 0 mm 3 mps 684 mmHg 84%
    07:00 +20°C° 0 mm 4 mps 684 mmHg 79%
    08:00 +21°C° 0 mm 5 mps 685 mmHg 71%
    09:00 +22°C° 0 mm 5 mps 685 mmHg 64%
    10:00 +25°C° 0 mm 5 mps 685 mmHg 57%
    11:00 +26°C° 0 mm 5 mps 685 mmHg 51%
    12:00 +28°C° 0 mm 5 mps 685 mmHg 45%
    13:00 +29°C° 0 mm 5 mps 685 mmHg 40%
    14:00 +30°C° 0 mm 5 mps 685 mmHg 35%
    15:00 +30°C° 0 mm 5 mps 685 mmHg 31%
    16:00 +30°C° 0 mm 6 mps 685 mmHg 28%
    17:00 +32°C° 0 mm 6 mps 685 mmHg 25%
    18:00 +29°C° 0 mm 5 mps 685 mmHg 29%
    19:00 +27°C° 0 mm 4 mps 685 mmHg 33%
    20:00 +25°C° 0 mm 3 mps 684 mmHg 37%
    21:00 +24°C° 0.1 mm 3 mps 685 mmHg 48%
    22:00 +21°C° 0.1 mm 2 mps 685 mmHg 59%
    23:00 +20°C° 0.1 mm 2 mps 685 mmHg 70%

    Tomorrow, 27 June, Thursday

    Time Temperature Precipitation Wind Pressure Humidity
    00:00 +19°C° 0.6 mm 2 mps 685 mmHg 75%
    01:00 +19°C° 0.6 mm 2 mps 685 mmHg 81%
    02:00 +19°C° 0.6 mm 1 mps 685 mmHg 86%
    03:00 +19°C° 0 mm 1 mps 684 mmHg 86%
    04:00 +19°C° 0 mm 1 mps 684 mmHg 85%
    05:00 +18°C° 0 mm 1 mps 684 mmHg 85%
    06:00 +19°C° 0 mm 2 mps 684 mmHg 80%
    07:00 +20°C° 0 mm 4 mps 684 mmHg 76%
    08:00 +21°C° 0 mm 5 mps 684 mmHg 71%
    09:00 +22°C° 0 mm 6 mps 684 mmHg 68%
    10:00 +23°C° 0 mm 7 mps 684 mmHg 64%
    11:00 +24°C° 0 mm 8 mps 684 mmHg 60%
    12:00 +26°C° 0 mm 8 mps 684 mmHg 56%
    13:00 +26°C° 0 mm 8 mps 683 mmHg 52%
    14:00 +27°C° 0 mm 8 mps 683 mmHg 48%
    15:00 +27°C° 0.1 mm 9 mps 683 mmHg 48%
    16:00 +26°C° 0.1 mm 9 mps 682 mmHg 48%
    17:00 +26°C° 0.1 mm 10 mps 682 mmHg 48%
    18:00 +24°C° 0 mm 10 mps 682 mmHg 53%
    19:00 +23°C° 0 mm 9 mps 681 mmHg 57%
    20:00 +22°C° 0 mm 8 mps 681 mmHg 62%
    21:00 +22°C° 0.3 mm 7 mps 681 mmHg 62%
    22:00 +21°C° 0.3 mm 6 mps 682 mmHg 63%
    23:00 +21°C° 0.3 mm 5 mps 682 mmHg 63%

    Day after tomorrow, 28 June, Friday

    Time Temperature Precipitation Wind Pressure Humidity
    00:00 +20°C° 0.2 mm 4 mps 682 mmHg 65%
    01:00 +20°C° 0.2 mm 4 mps 681 mmHg 67%
    02:00 +19°C° 0.2 mm 3 mps 681 mmHg 69%
    03:00 +19°C° 0.3 mm 4 mps 681 mmHg 71%
    04:00 +18°C° 0.3 mm 4 mps 681 mmHg 73%
    05:00 +18°C° 0.3 mm 4 mps 681 mmHg 75%
    06:00 +17°C° 1.4 mm 4 mps 681 mmHg 79%
    07:00 +17°C° 1.4 mm 4 mps 681 mmHg 82%
    08:00 +15°C° 1.4 mm 4 mps 680 mmHg 85%
    09:00 +16°C° 2.1 mm 3 mps 681 mmHg 86%
    10:00 +16°C° 2.1 mm 3 mps 681 mmHg 86%
    11:00 +16°C° 2.1 mm 2 mps 681 mmHg 87%
    12:00 +16°C° 1.1 mm 3 mps 681 mmHg 86%
    13:00 +15°C° 1.1 mm 4 mps 681 mmHg 85%
    14:00 +15°C° 1.1 mm 4 mps 681 mmHg 85%
    15:00 +14°C° 1 mm 5 mps 682 mmHg 86%
    16:00 +13°C° 1 mm 6 mps 682 mmHg 88%
    17:00 +11°C° 1 mm 7 mps 682 mmHg 90%
    18:00 +11°C° 0.2 mm 6 mps 682 mmHg 88%
    19:00 +13°C° 0.2 mm 5 mps 683 mmHg 86%
    20:00 +13°C° 0.2 mm 4 mps 683 mmHg 85%
    21:00 +13°C° 0 mm 4 mps 683 mmHg 84%
    22:00 +13°C° 0 mm 4 mps 684 mmHg 83%
    23:00 +14°C° 0 mm 4 mps 684 mmHg 82%

    29 June, Saturday

    Time Temperature Precipitation Wind Pressure Humidity
    00:00 +13°C° 0 mm 4 mps 684 mmHg 81%
    01:00 +13°C° 0 mm 5 mps 684 mmHg 80%
    02:00 +12°C° 0 mm 5 mps 684 mmHg 80%
    03:00 +12°C° 0 mm 5 mps 684 mmHg 80%
    04:00 +12°C° 0 mm 4 mps 684 mmHg 79%
    05:00 +12°C° 0 mm 4 mps 684 mmHg 79%
    06:00 +13°C° 0 mm 5 mps 685 mmHg 72%
    07:00 +15°C° 0 mm 6 mps 686 mmHg 65%
    08:00 +16°C° 0 mm 7 mps 686 mmHg 57%
    09:00 +17°C° 0 mm 7 mps 687 mmHg 55%
    10:00 +18°C° 0 mm 8 mps 687 mmHg 53%
    11:00 +18°C° 0 mm 8 mps 687 mmHg 51%
    12:00 +20°C° 0 mm 7 mps 687 mmHg 48%
    13:00 +21°C° 0 mm 7 mps 688 mmHg 45%
    14:00 +22°C° 0 mm 6 mps 688 mmHg 42%
    15:00 +22°C° 0 mm 6 mps 688 mmHg 41%
    16:00 +22°C° 0 mm 6 mps 688 mmHg 41%
    17:00 +22°C° 0 mm 5 mps 689 mmHg 40%
    18:00 +21°C° 0 mm 4 mps 689 mmHg 47%
    19:00 +19°C° 0 mm 2 mps 689 mmHg 53%
    20:00 +19°C° 0 mm 1 mps 688 mmHg 60%
    21:00 +19°C° 0 mm 1 mps 689 mmHg 59%
    22:00 +18°C° 0 mm 1 mps 689 mmHg 57%
    23:00 +17°C° 0 mm 2 mps 689 mmHg 56%

    30 June, Sunday

    Time Temperature Precipitation Wind Pressure Humidity
    00:00 +17°C° 0 mm 2 mps 689 mmHg 58%
    01:00 +16°C° 0 mm 2 mps 689 mmHg 59%
    02:00 +16°C° 0 mm 2 mps 689 mmHg 61%
    03:00 +15°C° 0 mm 2 mps 689 mmHg 62%
    04:00 +15°C° 0 mm 2 mps 689 mmHg 64%
    05:00 +15°C° 0 mm 2 mps 689 mmHg 65%
    06:00 +16°C° 0 mm 3 mps 690 mmHg 61%
    07:00 +17°C° 0 mm 3 mps 690 mmHg 58%
    08:00 +19°C° 0 mm 3 mps 690 mmHg 54%
    09:00 +20°C° 0 mm 3 mps 690 mmHg 49%
    10:00 +22°C° 0 mm 3 mps 691 mmHg 44%
    11:00 +25°C° 0 mm 3 mps 691 mmHg 39%
    12:00 +25°C° 0 mm 4 mps 691 mmHg 36%
    13:00 +26°C° 0 mm 4 mps 691 mmHg 32%
    14:00 +27°C° 0 mm 4 mps 691 mmHg 29%
    15:00 +26°C° 0 mm 4 mps 690 mmHg 31%
    16:00 +26°C° 0 mm 4 mps 690 mmHg 33%
    17:00 +25°C° 0 mm 4 mps 690 mmHg 36%
    18:00 +24°C° 0 mm 3 mps 690 mmHg 39%
    19:00 +23°C° 0 mm 2 mps 690 mmHg 43%
    20:00 +21°C° 0 mm 1 mps 690 mmHg 47%
    21:00 +21°C° 0 mm 1 mps 690 mmHg 47%
    22:00 +19°C° 0 mm 2 mps 690 mmHg 47%
    23:00 +18°C° 0 mm 2 mps 690 mmHg 47%

    1 July, Monday

    Time Temperature Precipitation Wind Pressure Humidity
    00:00 +18°C° 0 mm 2 mps 690 mmHg 49%
    01:00 +17°C° 0 mm 2 mps 690 mmHg 52%
    02:00 +17°C° 0 mm 2 mps 690 mmHg 54%
    03:00 +16°C° 0 mm 2 mps 690 mmHg 56%
    04:00 +16°C° 0 mm 3 mps 690 mmHg 59%
    05:00 +16°C° 0 mm 3 mps 690 mmHg 61%
    06:00 +17°C° 0 mm 3 mps 690 mmHg 58%
    07:00 +18°C° 0 mm 3 mps 691 mmHg 56%
    08:00 +20°C° 0 mm 3 mps 691 mmHg 53%
    09:00 +21°C° 0 mm 4 mps 691 mmHg 49%
    10:00 +23°C° 0 mm 4 mps 691 mmHg 44%
    11:00 +25°C° 0 mm 5 mps 691 mmHg 40%
    12:00 +26°C° 0 mm 4 mps 691 mmHg 38%
    13:00 +26°C° 0 mm 4 mps 691 mmHg 37%
    14:00 +27°C° 0 mm 4 mps 691 mmHg 35%
    15:00 +27°C° 0 mm 4 mps 691 mmHg 35%
    16:00 +27°C° 0 mm 3 mps 690 mmHg 34%
    17:00 +26°C° 0 mm 2 mps 690 mmHg 34%
    18:00 +24°C° 0.2 mm 3 mps 690 mmHg 44%
    19:00 +21°C° 0.2 mm 3 mps 690 mmHg 53%
    20:00 +19°C° 0.2 mm 4 mps 690 mmHg 63%
    21:00 +18°C° 0.7 mm 4 mps 690 mmHg 68%
    22:00 +17°C° 0.7 mm 3 mps 690 mmHg 73%
    23:00 +16°C° 0.7 mm 3 mps 690 mmHg 79%
    Show more